Theta_e
300 292 289 288 291 293 294 295 295 296 294 293 294 293 291 293 293 292 294 295 294 295 292 293 293 293 294 295 296 296 296 296 296 296 297 297 297 298 298 300 301 302 303 306 312 316 318 319 321 321 322 322 323 325 326 327 327 327 327 327 326 328 328 328 327 327 326 325 324 324 325 324 324 328 330 330 330 329 328 326 327 326 326 326 325 326
297 291 291 293 295 295 295 296 296 295 294 292 293 291 290 292 290 293 293 294 296 293 292 294 293 294 295 295 296 296 295 295 296 296 296 298 298 298 299 299 300 301 305 307 306 313 316 318 319 320 320 319 320 321 324 325 326 326 326 326 327 327 327 327 328 328 328 328 327 326 325 322 323 325 327 330 331 331 330 329 327 326 327 328 327 326
291 289 294 296 296 296 296 296 295 294 294 294 292 291 290 289 292 293 293 295 295 293 289 293 292 293 295 296 297 296 296 296 297 298 298 298 298 299 299 299 300 301 302 305 305 309 314 316 318 319 319 320 321 321 322 323 324 325 325 326 326 326 326 326 327 327 328 328 328 328 325 326 322 324 327 329 328 329 330 330 330 330 330 330 329 327
287 291 295 296 296 295 295 295 294 296 298 292 290 289 288 294 289 288 292 294 293 291 292 290 290 292 295 295 296 297 297 298 299 299 299 299 298 299 299 300 301 301 302 305 305 306 309 313 316 316 317 318 320 319 320 321 322 325 324 324 325 325 325 326 325 323 326 327 326 327 326 326 326 324 322 326 328 328 327 328 330 329 329 329 328 327
290 293 293 294 295 295 293 294 293 291 289 294 294 292 291 293 292 291 290 293 292 294 293 289 288 289 291 292 294 297 299 298 299 299 299 300 300 300 301 301 302 302 303 305 305 305 305 307 311 314 315 317 317 318 319 320 321 323 323 324 324 324 325 325 323 323 323 323 321 321 322 323 324 321 321 320 320 325 326 327 327 328 328 327 327 327
291 292 293 292 294 294 294 291 293 293 287 290 294 295 294 294 291 291 292 289 288 288 292 290 281 281 287 291 293 296 296 297 298 297 298 299 299 299 300 301 303 303 303 305 306 305 305 306 305 307 309 312 315 316 318 320 321 321 322 323 323 323 323 323 323 323 323 322 321 320 319 318 318 319 320 322 322 322 323 324 326 327 327 327 327 327
292 289 292 293 293 294 295 292 295 294 289 288 289 296 295 295 293 292 291 291 283 281 291 295 282 279 288 289 292 294 294 295 297 297 297 298 299 300 301 301 303 305 304 304 305 305 305 304 305 305 306 308 310 312 315 318 319 320 320 322 323 322 322 322 322 323 321 321 321 321 320 319 319 319 320 319 320 323 321 323 323 325 326 327 327 326
290 291 292 294 293 293 292 289 294 294 289 287 294 299 296 295 294 293 293 290 287 292 293 292 291 281 282 288 293 294 294 294 294 296 297 298 298 299 301 301 300 302 302 303 304 305 305 305 306 305 306 306 306 307 310 314 317 318 319 320 322 322 320 321 321 322 321 321 320 319 319 318 318 318 317 318 319 321 322 323 324 324 324 325 325 324
292 290 293 292 293 290 290 293 298 296 292 292 295 299 296 295 296 295 293 289 290 286 282 286 291 281 279 287 294 294 292 292 292 294 296 297 298 299 300 301 300 301 302 303 303 303 303 305 304 304 305 305 305 306 308 311 314 316 318 318 320 321 320 320 320 320 320 319 319 318 317 316 317 317 316 315 317 317 318 319 321 322 322 323 323 323
292 292 294 294 293 290 294 291 292 298 292 294 298 299 298 298 298 296 289 288 287 282 280 285 289 280 281 289 290 292 290 291 292 294 296 297 298 298 298 299 301 301 300 302 304 303 302 302 303 303 303 304 304 306 307 307 309 312 315 317 319 319 319 320 319 319 318 317 317 317 316 316 315 315 315 315 316 315 315 316 318 321 321 321 322 323
293 294 293 294 292 294 291 292 294 294 296 299 298 295 294 293 291 289 289 287 285 279 281 287 290 286 279 286 288 289 292 293 294 294 295 298 297 298 297 298 299 300 301 300 300 301 302 302 302 300 301 301 303 304 305 306 308 310 313 315 317 318 318 318 318 318 317 317 317 317 316 316 315 315 315 315 315 317 316 317 318 320 322 321 321 322
293 293 295 292 293 293 295 292 296 296 298 298 294 290 291 287 287 285 284 285 279 276 284 282 288 289 279 282 291 293 293 293 294 293 294 295 298 299 299 299 300 299 301 303 302 301 302 302 302 301 300 300 302 303 304 305 307 308 310 312 314 315 316 317 317 316 316 317 316 316 316 316 316 317 317 316 315 316 317 317 317 317 318 320 320 320
289 290 293 294 295 295 294 291 291 293 295 295 292 290 284 282 281 278 281 276 276 276 281 283 286 284 284 287 291 293 294 294 294 295 295 296 297 299 299 299 299 299 300 301 301 301 302 301 301 301 300 300 302 303 303 306 306 307 308 310 312 313 313 315 315 315 315 315 315 315 315 315 316 317 317 316 315 315 316 317 316 316 316 316 317 318
288 292 293 294 294 294 296 288 285 285 289 291 288 284 282 278 277 273 276 279 279 281 281 281 285 280 285 287 294 295 296 296 294 295 297 297 298 299 299 298 299 299 299 299 301 301 302 303 302 302 302 302 302 303 304 306 307 307 309 310 311 312 313 313 313 314 313 314 314 315 315 316 316 316 317 317 317 316 316 316 315 315 316 316 316 316
281 280 286 290 286 295 294 293 291 289 289 290 293 291 284 283 280 274 277 274 274 279 282 282 280 278 279 284 293 294 296 295 294 295 297 297 298 298 298 298 300 300 299 300 300 302 304 304 304 303 303 303 303 303 305 307 307 308 308 309 310 310 312 312 312 312 312 313 313 314 315 315 316 317 317 317 317 317 316 315 316 315 316 316 316 315
285 284 290 293 292 292 293 295 296 293 290 290 292 293 287 284 288 281 283 282 280 279 278 278 278 283 285 291 293 293 293 293 294 294 294 294 296 297 296 296 296 297 298 300 301 302 303 304 304 305 304 304 304 304 306 307 308 308 309 309 310 310 311 311 311 311 312 312 314 314 314 315 315 315 316 316 316 316 316 315 315 315 314 314 313 312
284 281 289 294 293 291 291 292 292 295 283 287 290 283 288 292 287 282 281 282 280 279 276 281 281 285 289 291 294 293 292 293 293 292 292 292 293 295 296 297 298 299 298 301 302 301 303 302 303 304 304 305 305 306 307 308 309 309 309 309 310 310 311 310 310 311 311 312 313 313 314 314 313 314 315 315 314 314 315 314 314 313 313 313 312 311
283 284 289 289 289 291 292 288 293 291 293 289 282 288 293 295 292 286 280 281 278 275 277 280 279 279 283 280 291 291 290 292 291 291 292 293 293 294 295 297 300 299 300 302 303 303 303 303 303 303 305 305 306 306 306 307 307 309 309 309 310 310 310 309 309 309 310 311 312 312 313 313 313 313 312 312 312 311 311 309 309 309 311 309 310 310
291 280 285 287 289 291 293 294 291 294 294 291 289 296 289 282 281 284 283 277 276 274 276 279 279 280 281 284 287 288 289 291 292 291 292 293 294 294 295 296 299 300 301 301 302 302 302 302 303 303 304 304 305 306 306 307 308 308 307 309 310 310 310 309 309 308 309 310 312 312 312 312 313 312 310 308 308 308 308 307 307 306 307 306 306 308
292 283 282 288 290 290 291 290 284 285 292 294 293 287 291 286 285 282 282 283 282 276 276 275 279 276 287 286 289 290 289 290 291 291 291 292 294 295 294 296 299 300 300 299 300 301 302 302 303 303 303 303 304 305 306 307 307 307 307 308 308 309 309 308 308 308 309 309 310 311 311 311 310 309 309 308 309 309 307 307 307 306 306 307 306 305
286 287 280 284 290 290 282 285 285 287 284 285 285 283 286 286 288 286 285 283 280 278 276 276 274 280 286 291 291 292 292 293 293 293 296 297 297 297 297 298 299 299 299 300 300 301 302 302 302 302 301 301 301 301 303 305 306 306 306 307 307 308 308 308 308 308 308 309 309 308 309 309 309 308 307 306 307 308 307 306 307 306 306 303 303 302
285 285 282 282 282 281 285 289 289 291 291 289 288 285 287 284 282 279 279 287 283 281 276 277 275 281 291 291 293 292 292 293 294 293 295 296 295 296 297 299 301 299 298 300 300 300 300 300 300 300 300 299 300 301 302 303 304 304 305 306 306 307 308 308 308 308 308 309 309 308 308 307 306 307 305 305 305 305 305 304 303 302 301 301 299 299
291 287 284 281 283 284 289 290 290 291 290 291 289 287 290 288 286 282 278 282 283 281 282 279 277 278 291 291 291 291 292 292 292 292 293 293 294 294 295 297 298 300 300 300 300 300 300 299 300 300 300 299 300 300 301 301 303 304 304 305 305 306 306 307 308 308 307 307 308 307 307 306 305 304 302 303 302 302 301 300 300 299 300 298 298 298
293 285 282 282 283 287 288 290 287 289 290 290 289 288 289 287 287 286 284 284 281 282 280 280 276 281 292 292 289 291 291 291 292 290 291 292 292 293 294 295 297 297 299 300 299 300 299 299 297 298 298 299 299 299 300 301 302 303 304 305 305 305 305 306 306 307 306 305 305 305 304 304 302 302 302 301 301 300 298 298 298 297 297 297 297 297
284 285 286 280 279 280 282 286 285 288 288 284 285 288 289 290 289 285 285 286 282 283 282 279 276 280 289 289 289 288 289 291 291 291 290 291 291 295 295 296 297 298 299 299 299 299 299 298 296 298 298 299 299 298 300 301 301 302 303 302 303 303 303 303 303 304 303 302 301 302 302 300 299 299 298 300 298 296 297 296 297 296 296 296 296 296
287 286 286 279 276 274 273 275 278 281 282 285 286 288 289 289 288 285 283 283 281 283 283 279 280 286 289 288 290 288 290 290 291 291 292 291 293 295 296 297 297 297 298 298 299 298 298 298 297 297 298 299 300 301 301 301 301 301 301 302 300 301 300 300 300 301 301 300 300 299 299 298 297 297 298 297 296 296 296 298 296 295 295 295 297 294
285 287 288 286 283 281 283 283 287 288 284 283 284 287 287 289 290 288 286 283 282 284 283 283 285 286 287 288 287 289 289 290 290 291 291 292 292 293 294 296 296 297 298 298 299 298 298 298 299 300 300 300 298 298 299 299 300 299 300 299 299 299 300 299 299 299 299 298 297 297 296 296 296 296 295 295 295 295 294 294 294 294 294 293 293 292
285 283 287 288 287 287 289 288 289 290 286 287 285 285 288 288 288 287 285 283 287 283 281 286 288 285 287 290 289 289 289 289 291 292 292 292 294 294 294 296 298 298 298 298 299 300 298 298 298 298 299 299 298 298 298 297 297 298 298 298 296 296 297 299 298 297 297 297 296 295 295 294 293 293 293 293 293 293 292 292 292 292 293 292 293 292
285 283 286 287 286 289 289 291 291 291 289 289 288 287 286 287 286 286 286 288 287 284 282 287 288 287 289 291 292 292 292 293 293 294 294 294 295 295 295 295 294 295 296 297 296 297 297 298 299 299 299 298 298 298 298 297 296 296 295 295 294 294 296 295 296 296 295 295 295 294 293 293 293 292 291 290 291 291 291 291 290 291 291 291 291 292
286 282 285 287 284 286 286 289 291 290 289 288 289 288 288 288 287 287 288 289 288 286 289 289 289 289 292 292 293 293 293 294 293 293 292 293 294 294 294 294 294 294 295 296 297 297 297 298 299 299 298 297 297 298 297 297 296 296 295 294 293 294 294 295 293 295 294 294 294 293 292 292 290 290 289 289 289 289 289 289 289 289 289 290 290 290
289 283 290 283 282 282 285 285 286 287 286 285 287 290 290 289 289 289 288 289 289 288 289 289 288 288 293 294 294 294 294 294 292 292 292 293 293 294 294 293 294 294 296 296 297 297 297 296 297 297 296 296 296 296 296 297 296 296 295 294 293 293 294 293 292 292 292 293 292 292 290 291 290 288 288 288 287 288 288 288 288 287 288 289 289 289
288 282 286 283 281 280 282 284 283 283 283 283 283 286 289 288 286 287 286 289 286 285 287 286 285 287 293 295 294 294 293 292 292 292 291 292 293 294 294 294 294 295 296 297 297 296 295 295 295 295 295 294 294 294 294 294 294 292 294 292 292 292 292 292 292 293 291 291 290 290 290 289 288 288 287 287 286 286 286 286 287 287 288 288 288 289
285 284 283 282 281 279 280 283 280 280 280 279 282 286 289 290 291 290 290 290 290 290 286 284 286 292 293 293 293 294 294 291 292 293 293 294 294 294 294 295 295 295 296 296 296 296 296 296 295 295 294 294 294 293 292 292 291 292 292 291 290 289 290 291 291 292 291 289 289 288 288 287 288 287 287 286 285 285 285 285 286 287 287 288 288 288
285 285 283 283 279 279 278 281 281 279 275 278 289 291 291 289 290 287 287 289 291 291 289 292 292 294 293 293 293 293 294 293 294 295 296 297 296 295 294 294 294 295 295 296 296 296 295 295 294 295 294 293 292 291 290 290 291 291 290 290 289 290 291 292 291 290 288 288 288 287 287 287 287 286 285 285 285 284 285 285 286 286 286 287 287 287
285 284 283 283 281 278 278 281 278 273 277 288 291 291 292 292 292 291 291 292 292 292 292 291 292 292 293 293 294 295 295 295 296 296 296 296 295 295 295 295 295 296 296 296 295 296 295 295 294 292 291 289 289 288 289 290 290 290 290 290 290 290 290 289 289 288 287 287 286 286 286 286 286 286 285 284 284 284 284 285 284 285 285 286 287 287
284 284 283 283 282 280 276 278 273 276 283 287 290 291 291 292 291 290 289 291 292 292 292 291 293 294 294 294 295 295 293 292 291 293 294 295 296 297 295 296 297 296 296 296 295 296 295 294 293 291 289 288 289 289 289 289 289 290 289 289 288 288 287 287 286 286 286 286 286 285 285 285 285 285 284 284 283 284 284 285 285 285 285 285 285 284
290 287 284 281 283 276 276 278 279 282 283 282 284 288 290 287 285 286 283 287 291 293 292 292 293 294 295 295 293 290 291 290 290 292 292 293 296 296 299 299 298 295 294 292 293 291 291 290 289 288 288 287 288 289 289 289 289 288 287 287 286 286 285 285 285 285 285 285 285 285 284 284 284 284 284 283 283 283 284 284 284 285 285 284 284 284
289 286 285 283 279 283 277 275 277 276 276 282 288 291 293 294 293 291 286 286 292 293 294 293 293 294 294 291 289 289 288 290 290 292 293 294 296 297 295 291 288 290 290 288 288 288 288 287 287 287 287 287 287 287 287 287 287 286 285 284 284 284 283 283 283 283 284 283 283 283 283 283 283 283 283 283 282 282 283 283 284 284 285 283 283 283
286 287 286 285 281 281 280 276 275 275 279 284 287 291 292 293 293 289 285 283 291 292 294 293 293 294 293 290 287 290 289 286 288 292 292 294 293 290 288 285 287 286 287 287 287 286 286 286 285 285 285 285 284 284 285 285 285 284 283 282 282 282 282 282 282 283 282 282 282 282 283 282 282 282 282 282 282 282 283 283 284 284 284 284 283 283
283 284 283 282 278 281 280 277 276 278 281 282 287 287 291 293 293 288 276 280 291 289 291 292 293 293 290 290 288 288 288 286 288 293 287 285 284 285 286 286 285 285 285 285 285 285 284 284 284 283 282 282 282 283 284 284 283 282 281 280 280 280 280 280 281 282 282 282 282 282 282 282 281 281 281 281 282 282 282 283 283 283 283 283 283 283
279 280 282 281 281 282 283 278 279 281 287 286 286 287 291 294 290 281 277 285 288 291 292 293 292 293 291 290 290 289 290 293 290 286 284 284 284 284 285 285 285 284 283 283 283 283 282 282 281 280 280 281 282 282 282 281 280 279 279 278 278 277 278 279 280 281 281 281 281 281 281 281 281 281 281 281 282 282 282 282 282 282 281 282 282 282
278 280 280 281 279 280 280 277 279 282 286 286 286 292 293 289 279 281 288 286 287 289 288 291 292 292 291 292 290 292 290 285 285 284 283 283 283 283 282 283 283 283 283 282 282 282 281 280 279 279 278 278 279 280 280 279 278 277 276 276 275 276 277 278 279 280 280 280 280 280 280 280 281 281 281 281 281 280 281 282 281 282 281 281 281 281
282 280 279 280 280 279 279 279 278 276 283 291 291 288 289 286 285 289 286 286 286 286 287 289 290 290 289 290 290 291 285 284 283 284 283 283 283 282 282 282 282 281 281 281 280 281 280 278 277 276 276 276 277 278 278 277 276 275 275 273 273 275 276 277 278 279 279 278 278 278 278 278 279 279 280 279 280 279 279 280 280 281 281 281 281 282
286 280 279 281 284 278 279 277 279 285 287 293 292 288 288 288 289 286 288 289 287 285 286 286 286 285 286 289 289 286 284 283 282 282 282 281 281 281 281 281 281 281 280 280 280 279 279 277 276 275 275 274 274 275 275 275 274 274 273 272 273 274 274 275 276 276 276 277 276 276 276 277 277 277 277 277 277 277 278 278 279 279 281 281 280 281
287 285 286 282 284 282 282 285 288 286 290 289 291 289 291 289 288 286 288 288 288 286 285 286 286 284 284 285 285 285 284 282 282 282 281 280 279 279 279 279 279 280 280 279 279 279 278 277 275 274 273 273 272 272 272 273 273 272 271 272 272 272 273 273 274 274 274 274 274 274 274 274 275 275 275 276 276 276 277 277 278 278 279 280 280 280
288 288 285 287 284 287 289 290 289 286 287 285 287 286 286 286 284 285 286 286 284 284 285 285 285 285 284 284 286 284 284 283 281 280 279 279 279 278 279 279 279 279 279 278 278 278 277 276 275 274 273 272 272 271 271 270 271 270 270 270 270 271 272 272 272 273 273 273 273 273 273 273 273 274 275 275 275 276 277 277 278 278 279 280 280 280
284 286 286 283 284 285 282 290 286 287 286 286 286 285 284 283 284 284 285 284 284 284 284 283 285 285 285 284 284 284 283 282 280 280 279 279 278 277 277 277 277 277 277 277 278 277 276 275 275 274 273 272 272 270 269 268 268 268 269 268 269 269 270 271 272 272 272 271 272 272 272 272 273 273 274 275 275 277 277 277 277 277 278 278 278 278
285 286 286 285 285 285 287 286 286 284 284 285 286 285 285 285 282 282 282 282 282 282 282 282 283 284 284 285 284 283 282 281 281 279 279 278 277 277 277 276 276 276 276 276 276 275 274 274 274 274 273 272 271 270 269 268 267 267 267 267 268 268 269 270 271 271 270 271 271 272 272 273 274 274 274 275 275 275 275 276 276 276 276 277 277 277
287 289 284 286 286 286 286 283 281 284 285 283 285 285 286 286 283 281 281 281 281 281 280 280 280 282 284 284 284 283 281 280 280 279 278 277 277 277 276 276 276 276 276 275 274 274 273 273 272 272 272 271 271 269 268 267 267 267 267 267 267 268 268 269 271 271 271 271 272 272 273 272 273 273 273 274 274 275 275 275 275 276 276 278 279 279
287 285 285 286 285 285 285 285 284 284 285 284 282 284 284 282 282 281 280 280 280 280 280 280 279 279 280 282 284 283 281 279 279 278 277 277 276 276 275 275 275 275 275 274 273 272 272 272 272 271 271 271 270 269 267 266 266 266 266 266 266 267 267 268 269 270 270 271 271 271 271 272 272 273 273 274 274 274 275 277 278 278 277 277 280 280
286 285 286 286 286 285 287 288 286 287 285 284 285 283 282 281 281 281 280 279 279 280 280 280 279 279 279 279 279 281 280 279 278 277 276 275 275 275 275 275 274 274 274 273 271 270 270 270 270 270 269 269 269 267 266 265 265 264 265 265 265 266 266 268 268 268 269 269 270 271 271 271 272 273 273 273 273 273 273 274 276 278 279 279 279 280
Wind_Speed
5 5 6 8 6 7 8 9 8 6 4 4 7 7 9 3 2 4 2 1 2 1 6 5 6 7 7 6 7 9 6 6 6 7 7 6 6 6 6 8 8 8 7 7 9 11 11 11 10 9 8 8 7 7 8 9 9 10 9 10 11 10 8 8 7 6 7 8 7 5 7 7 6 7 8 7 6 6 6 5 5 5 5 5 6 6
3 6 7 8 8 8 10 8 10 1 5 4 2 6 5 5 1 2 2 1 0 1 3 7 6 8 7 5 5 7 7 9 10 8 8 7 7 6 6 6 8 7 4 6 6 9 10 10 10 9 8 8 10 8 8 10 10 10 9 10 10 10 10 10 10 9 8 8 9 9 8 5 5 6 7 7 7 7 6 6 5 5 5 5 6 6
6 8 5 8 9 4 5 11 9 5 3 2 1 2 4 4 3 1 4 1 0 1 5 1 7 9 9 8 6 8 11 8 10 10 11 10 9 8 8 8 7 6 7 7 8 8 10 11 11 10 9 10 12 12 12 11 10 10 11 10 9 10 11 10 10 9 10 8 7 8 6 7 4 3 5 7 7 8 8 8 7 6 6 7 7 7
5 5 7 5 8 4 1 4 5 2 0 1 3 1 2 1 3 1 1 1 0 1 1 3 4 7 6 5 6 5 10 6 9 11 9 9 11 11 10 9 9 9 8 10 10 10 9 10 11 10 10 10 9 10 9 10 12 11 10 10 10 10 10 10 10 10 9 9 7 7 7 6 6 6 3 5 8 8 9 9 9 7 7 7 7 7
4 3 0 1 4 7 2 2 2 3 3 3 4 2 2 1 0 2 2 1 1 1 2 4 6 7 6 6 6 8 11 8 8 10 10 9 10 9 7 8 11 12 11 11 9 9 9 10 11 12 10 9 12 11 12 12 12 10 13 12 12 10 11 10 10 9 7 8 6 6 5 6 6 2 4 3 4 8 8 7 8 8 7 7 7 6
7 2 1 3 3 4 5 4 4 4 4 3 4 4 2 3 5 4 4 3 1 2 3 3 2 6 4 10 13 10 9 11 9 9 10 11 10 7 8 9 8 8 10 12 13 13 13 13 10 9 10 11 10 11 11 12 12 11 11 11 10 9 9 10 10 10 7 8 8 8 8 8 8 8 8 11 11 8 9 9 6 7 8 7 6 6
3 1 1 7 5 3 3 3 4 4 4 3 2 7 7 2 6 5 4 1 1 2 1 1 7 5 1 4 7 10 8 13 8 11 11 10 9 8 10 9 7 8 6 7 7 9 11 11 10 10 11 11 11 10 8 9 10 10 9 10 11 10 9 9 8 10 8 8 8 9 9 8 9 10 8 6 5 7 6 6 7 7 7 8 8 7
2 2 3 3 5 4 3 3 3 7 4 3 1 3 4 5 6 5 5 4 1 1 1 0 1 2 6 8 4 1 8 6 5 6 7 7 7 9 10 9 8 9 8 8 8 9 11 11 13 14 13 11 12 8 8 7 8 11 10 10 10 9 8 8 8 10 10 9 9 9 8 8 8 8 7 7 6 5 6 7 7 7 7 8 8 7
5 4 3 5 4 4 7 3 1 6 3 2 0 4 1 2 3 5 4 3 1 3 4 1 1 1 5 4 1 0 0 2 5 7 9 10 9 10 11 11 11 11 11 11 10 8 8 10 10 9 10 9 7 8 9 9 8 8 8 8 8 9 8 8 9 10 9 9 8 9 8 8 7 6 5 4 5 6 5 6 7 7 7 8 9 9
1 4 9 11 8 7 3 1 2 2 6 1 1 4 4 4 2 2 2 1 0 1 5 4 4 3 7 3 4 2 4 5 6 9 10 12 12 11 9 9 11 9 7 8 9 9 7 6 6 6 6 7 8 7 7 6 6 6 6 8 9 9 8 8 9 10 10 9 8 8 8 9 7 5 5 4 5 5 5 6 5 6 6 6 8 8
0 0 2 2 5 3 5 2 1 5 3 3 2 5 3 2 2 2 1 1 0 4 6 5 7 5 5 4 7 5 5 7 7 5 3 2 8 9 7 7 7 6 6 5 4 4 4 3 5 5 7 6 5 5 6 7 7 6 7 7 9 8 7 8 10 10 11 10 9 9 9 10 9 8 6 6 7 7 7 8 7 7 7 6 6 7
1 1 0 1 1 2 3 5 3 1 2 2 2 2 3 3 2 1 0 1 2 4 0 3 1 5 7 2 3 2 1 2 2 1 3 1 1 3 4 4 4 4 4 3 3 3 4 4 3 4 5 5 5 5 5 5 5 6 6 7 8 7 8 8 9 10 10 10 9 7 9 10 9 10 9 10 9 9 10 8 8 7 6 7 6 5
2 1 1 3 4 1 3 7 3 3 0 2 3 5 6 2 2 1 1 2 4 5 1 1 1 2 10 5 9 10 6 0 1 2 0 2 3 3 3 3 3 3 3 4 4 5 5 6 6 5 5 5 6 7 6 6 5 5 6 7 9 8 7 9 8 10 9 9 10 9 9 9 9 10 10 9 8 7 8 8 8 8 8 6 7 8
1 1 1 1 2 3 3 9 3 2 2 4 5 5 5 2 2 2 2 2 2 1 2 1 1 2 2 3 11 14 15 12 3 4 4 4 5 5 5 4 4 3 4 4 5 5 5 6 6 6 6 6 6 6 7 6 6 6 6 7 9 9 7 8 9 10 10 10 10 9 8 8 9 9 10 9 8 7 7 7 8 8 8 8 8 8
5 2 5 6 1 3 1 0 5 6 9 7 3 5 5 3 2 3 3 4 5 3 0 3 1 6 3 4 3 9 11 3 2 2 1 2 2 3 3 3 2 4 5 5 5 5 5 6 6 7 7 7 6 7 7 7 7 7 7 8 9 8 8 9 10 9 10 9 8 8 7 7 8 9 8 8 8 7 7 7 7 7 7 8 8 9
10 2 2 3 3 1 7 1 1 6 4 2 3 4 1 5 1 2 0 0 0 0 1 1 4 2 4 3 6 5 3 3 3 4 3 4 3 3 3 4 5 5 5 5 5 5 5 5 5 5 6 6 6 7 7 7 7 7 8 8 9 10 9 9 9 9 9 8 7 7 8 8 7 7 7 7 7 7 7 6 7 7 7 6 5 4
4 4 2 3 1 3 1 2 1 0 5 4 4 4 4 1 6 3 1 0 1 2 6 4 3 7 4 7 10 8 5 6 3 4 4 5 5 5 5 5 5 5 5 5 5 5 5 4 5 5 5 5 6 7 8 8 8 8 8 8 8 7 7 8 8 8 8 8 8 9 8 7 7 8 8 8 7 7 6 6 6 6 6 5 4 4
9 3 1 2 1 1 0 1 1 3 1 7 1 6 2 1 3 2 3 1 1 5 4 5 6 3 1 6 4 7 6 8 5 5 5 4 4 5 5 5 5 5 5 5 5 5 6 5 5 5 5 5 6 6 6 7 6 6 6 7 8 7 9 7 7 8 8 8 8 7 8 7 7 6 6 7 6 5 5 4 4 4 5 5 4 4
8 4 1 2 1 3 1 0 2 1 3 2 6 2 7 2 3 1 0 4 2 4 3 2 4 3 7 6 3 1 5 7 5 4 4 3 5 6 6 5 5 5 5 5 5 4 5 5 6 5 6 5 5 6 6 6 6 5 5 6 6 7 8 7 6 5 6 6 5 6 7 7 7 6 5 4 4 4 4 4 4 4 4 4 4 5
5 5 2 1 1 2 0 2 8 2 2 0 0 2 1 3 4 4 4 1 1 4 4 4 4 4 4 4 5 6 5 5 5 5 5 4 5 6 5 5 5 5 5 5 5 5 5 5 6 6 6 6 6 6 6 6 5 5 5 6 5 6 7 7 7 7 7 6 5 6 6 6 5 5 5 5 5 5 4 4 4 4 4 5 4 4
1 2 4 1 2 1 1 3 6 10 8 1 2 2 0 1 1 3 3 3 3 3 3 2 3 2 4 6 8 10 5 1 2 3 1 0 1 1 1 4 5 5 5 5 5 5 6 5 5 5 5 5 4 4 5 6 6 5 5 6 6 8 9 9 8 8 7 6 6 6 7 7 6 6 4 4 4 5 4 4 5 4 4 3 4 4
3 2 7 3 3 3 2 1 1 3 7 10 10 7 9 6 4 4 6 1 2 2 3 4 7 2 2 3 3 1 1 3 1 2 1 0 1 2 3 3 0 4 5 5 5 5 5 5 5 5 5 5 5 5 5 5 5 5 5 6 5 6 7 8 9 9 8 7 6 7 6 6 5 5 4 5 4 5 5 5 5 5 5 5 5 5
4 3 9 5 3 3 0 1 1 1 0 2 3 7 10 7 7 5 7 5 0 4 1 1 3 7 3 2 2 1 0 0 1 1 2 1 1 1 2 2 2 1 2 2 3 4 4 5 6 6 6 6 6 5 5 5 6 6 6 6 5 6 6 7 7 6 6 7 6 6 5 5 5 5 5 6 5 5 5 5 5 4 5 5 4 3
9 4 6 3 3 1 1 1 2 2 2 0 4 2 7 9 9 8 5 4 4 1 2 1 6 3 1 0 1 4 5 4 3 2 4 4 4 3 2 2 3 1 1 2 2 3 4 4 4 5 5 5 5 6 6 5 5 5 5 6 6 7 6 6 6 6 5 5 6 5 5 6 5 6 6 6 6 5 5 4 4 4 4 4 4 4
4 2 9 5 2 1 2 1 2 1 0 2 1 2 1 1 3 2 4 2 2 5 6 5 10 5 4 4 4 3 5 5 4 3 4 4 3 2 3 2 2 2 1 1 2 2 2 2 3 4 5 5 5 5 5 6 6 6 6 5 6 5 5 5 5 6 5 5 6 6 6 6 6 6 6 6 5 5 5 5 5 4 5 4 4 4
4 6 9 8 9 9 5 8 11 9 7 0 1 2 4 4 7 5 6 3 6 4 7 4 7 5 3 1 2 4 3 5 5 3 2 4 3 2 1 2 3 4 4 2 2 2 3 3 3 4 5 5 5 6 6 6 6 5 5 5 5 5 5 5 4 5 5 5 6 5 6 5 5 6 5 5 5 5 5 5 5 4 4 4 5 4
3 3 6 9 12 13 11 2 5 11 6 8 6 7 6 5 4 3 2 3 9 4 8 5 8 12 8 4 2 5 4 5 7 4 4 4 4 5 4 4 4 4 3 3 3 3 2 2 4 4 4 4 5 5 5 5 5 5 5 5 5 5 5 5 5 5 5 4 5 4 5 5 5 5 5 5 5 4 4 5 4 4 4 3 4 4
3 4 7 10 8 6 4 5 9 13 9 9 9 7 7 8 8 7 7 8 4 4 11 5 7 11 13 9 7 7 6 5 5 5 4 4 4 4 7 4 4 3 1 1 1 3 4 4 3 3 3 3 4 3 3 4 4 5 5 5 4 4 5 5 5 4 4 4 4 4 4 4 4 4 4 4 4 4 4 4 4 3 1 2 2 3
6 8 5 6 6 5 5 8 12 10 10 10 12 11 10 9 8 12 11 12 6 8 13 10 10 15 16 10 9 9 7 6 6 7 5 3 2 3 3 5 5 4 3 3 4 4 4 5 4 3 2 2 3 3 3 4 4 4 4 4 4 4 4 4 5 4 4 4 4 4 4 4 3 4 4 4 4 4 4 4 3 2 1 1 2 2
3 2 4 6 5 4 4 3 7 9 6 6 10 11 12 13 13 14 14 15 15 12 12 14 13 18 16 9 9 7 7 7 6 3 3 1 3 6 5 5 4 4 5 5 6 6 5 5 4 3 4 3 3 3 4 3 3 3 4 4 3 3 2 4 4 4 4 4 4 3 4 5 4 4 4 4 3 3 3 3 3 3 2 1 2 1
5 3 11 5 5 5 7 6 6 7 6 6 5 7 7 8 11 14 14 16 16 15 16 17 14 17 15 8 6 5 3 1 2 3 5 6 5 5 5 3 3 5 6 6 6 7 6 5 3 3 4 5 5 4 4 4 3 3 3 2 2 2 1 3 3 4 4 3 4 4 4 5 4 4 4 3 3 3 3 3 3 3 2 2 1 1
4 2 2 6 6 5 4 7 5 3 2 1 4 6 8 11 12 12 12 9 7 8 9 9 12 17 20 8 5 6 4 5 5 5 6 6 3 3 3 4 5 7 8 8 8 6 6 6 6 5 5 4 4 4 4 4 4 4 4 3 3 3 2 3 4 4 4 4 4 4 4 4 4 5 4 4 4 3 2 3 3 3 2 1 1 1
6 6 6 6 7 5 4 6 8 5 3 3 9 15 19 15 12 9 10 10 13 13 11 11 19 19 7 2 10 13 8 5 6 8 6 3 5 6 6 6 7 6 8 8 8 7 7 7 7 5 3 3 4 5 4 5 6 5 4 5 4 4 4 4 5 6 6 5 5 4 4 4 5 5 5 4 4 3 3 3 3 2 1 1 0 1
4 6 4 4 5 2 4 7 6 5 8 15 20 16 12 13 12 9 9 13 14 13 12 16 17 13 6 6 9 14 11 7 8 8 8 9 9 6 2 3 5 7 7 8 8 7 6 4 4 3 4 6 6 6 5 5 7 5 5 6 5 6 5 7 7 7 6 6 6 5 5 5 5 5 5 4 4 3 3 2 3 2 2 2 2 1
9 5 5 4 4 3 5 9 6 8 15 19 1 3 11 13 10 16 19 19 16 16 14 14 14 13 7 7 9 13 9 4 7 10 12 9 4 2 4 5 7 9 10 9 8 7 6 7 5 5 5 5 4 4 6 6 6 6 7 6 7 7 8 7 8 7 7 7 6 6 5 5 5 6 5 4 4 3 3 3 3 4 3 3 1 1
8 8 4 2 3 5 3 6 5 13 7 2 4 9 10 11 16 10 12 13 12 9 9 13 17 18 16 13 11 5 2 0 1 1 1 1 3 3 4 5 8 10 10 8 7 8 6 6 6 6 6 4 6 6 7 6 6 8 7 7 9 9 8 8 9 8 7 7 7 7 6 6 6 6 5 4 4 4 4 4 4 5 4 4 4 3
13 8 6 4 4 5 5 6 9 5 9 6 5 8 9 7 4 9 10 14 11 9 11 15 19 20 17 13 2 3 0 3 3 5 3 3 3 5 8 10 4 1 2 5 4 5 7 7 8 7 6 7 7 7 6 6 7 8 9 10 9 10 9 9 9 8 7 7 7 7 7 7 6 6 5 4 5 6 6 5 6 6 5 5 5 4
6 11 6 7 4 6 6 3 1 3 9 18 8 6 7 6 7 5 5 12 10 12 14 16 17 17 12 2 3 1 2 5 11 11 6 8 7 9 6 8 8 6 5 5 7 8 9 9 10 9 9 9 8 6 5 6 8 10 11 10 9 10 10 10 9 7 8 8 7 7 7 7 6 7 6 7 7 6 5 5 4 5 4 4 4 4
5 3 8 11 4 7 5 5 5 7 14 5 6 10 10 8 10 8 5 12 16 15 12 9 12 14 9 3 3 2 1 4 11 11 3 11 6 4 5 7 8 7 7 7 7 9 9 10 10 9 9 10 10 7 6 8 10 12 12 10 10 10 11 10 8 8 8 7 6 7 7 7 7 7 7 7 6 5 6 5 5 4 5 5 4 4
4 1 6 6 4 6 8 6 8 5 10 3 6 6 12 11 12 9 1 12 18 5 7 9 15 14 4 7 8 7 8 7 12 10 1 4 8 6 4 6 7 8 8 9 9 9 8 8 11 13 12 11 7 6 8 9 12 13 11 10 9 12 10 8 7 6 6 6 7 7 7 6 7 7 7 6 5 6 6 4 4 6 5 5 5 5
3 0 3 12 9 6 8 5 4 6 5 3 6 7 11 13 11 8 14 13 6 12 12 12 10 9 7 9 9 8 11 8 2 4 3 4 8 9 8 8 8 7 8 8 8 8 11 11 12 12 10 8 8 7 7 10 13 12 10 10 12 11 9 7 6 7 6 6 6 7 7 6 6 6 6 5 5 5 5 5 5 5 5 5 5 4
2 3 0 1 4 8 6 3 7 7 8 7 2 14 12 10 6 17 7 2 4 1 6 8 9 8 6 10 7 9 2 6 7 5 8 7 8 6 7 7 9 10 9 9 9 10 11 11 12 12 13 11 11 9 8 11 14 11 10 12 12 8 6 6 6 6 6 7 7 6 6 6 6 5 5 5 5 5 5 4 4 5 4 4 4 6
11 8 8 10 4 1 3 7 3 11 4 11 10 1 5 11 8 3 2 4 1 3 5 1 2 3 4 7 8 6 7 6 7 7 7 7 7 8 7 7 8 8 8 9 10 8 11 12 12 12 11 10 10 9 8 13 14 10 10 13 8 6 6 6 6 6 5 6 6 6 6 5 6 6 5 5 4 4 5 5 6 6 5 6 6 6
9 7 4 7 7 8 8 7 10 6 5 12 18 12 7 2 2 2 4 1 4 4 4 4 4 4 3 1 0 2 6 9 7 9 9 8 8 8 9 9 8 9 10 9 9 8 11 13 11 11 11 9 10 10 9 10 12 9 11 10 6 5 6 5 5 5 5 5 5 5 5 5 5 5 5 5 5 4 5 6 5 5 5 6 6 6
11 12 9 8 4 6 9 12 11 2 8 1 3 2 4 2 1 2 5 3 4 2 0 5 1 3 4 3 4 5 5 3 7 5 8 6 8 7 9 9 8 8 8 9 9 8 9 12 13 12 12 9 11 9 9 8 11 11 11 6 6 5 4 4 4 4 5 5 5 5 5 5 6 5 5 6 5 6 6 5 5 6 5 5 5 5
6 8 5 4 5 5 7 8 2 3 3 2 2 1 2 1 3 3 4 4 1 2 1 5 1 0 1 3 3 4 5 7 10 8 9 8 9 9 8 9 9 8 9 9 9 9 10 10 11 13 12 11 10 9 9 9 8 12 6 5 5 5 3 3 3 4 5 4 5 5 4 4 5 5 5 5 5 5 5 5 5 5 5 5 5 6
2 3 4 4 1 7 10 13 5 3 4 6 4 1 1 2 1 1 2 2 5 5 4 3 1 0 0 1 3 7 7 8 11 9 9 9 8 8 8 8 8 7 8 9 7 7 8 9 11 11 11 11 8 8 8 8 9 8 5 5 5 4 3 3 4 5 5 5 4 3 4 5 6 5 5 5 5 5 5 5 5 5 4 5 5 5
3 2 6 6 6 12 13 2 3 2 4 3 5 4 1 1 3 4 4 4 4 4 3 2 2 1 1 1 5 9 9 9 13 11 9 9 9 9 9 9 9 10 8 8 8 7 8 9 10 10 10 10 7 7 7 7 7 6 5 5 5 5 4 3 4 5 4 4 4 4 5 5 7 7 6 6 6 6 6 6 5 4 5 5 6 6
5 8 6 6 8 6 3 4 3 6 2 1 1 2 1 3 5 3 4 4 4 5 4 4 3 1 1 3 6 9 10 5 8 11 11 9 9 9 8 9 9 9 9 9 7 7 8 8 10 9 10 9 7 6 6 6 6 6 6 6 5 5 4 4 3 4 5 5 5 6 5 5 5 6 5 5 5 5 4 4 5 5 5 4 3 4
6 9 2 6 8 10 10 6 5 2 5 3 4 5 1 3 6 5 4 4 4 5 5 5 4 3 4 2 6 9 11 9 8 10 11 9 9 9 10 9 10 10 10 9 8 8 9 9 9 9 9 8 6 6 6 6 6 6 5 5 5 5 4 4 4 6 6 6 6 6 6 5 5 5 5 5 5 5 5 7 9 6 5 4 7 10
7 5 7 10 10 10 3 4 5 4 3 1 3 4 3 3 4 4 3 4 4 3 4 7 6 5 5 5 3 8 11 12 12 12 12 10 9 8 8 10 10 9 10 9 10 9 9 8 8 8 9 7 6 6 5 5 5 5 5 5 6 6 5 4 4 4 5 5 6 6 5 4 4 5 5 5 5 5 6 5 5 8 9 8 8 9
Wind_Direction
156 177 190 203 200 191 205 216 230 250 333 322 194 184 217 174 211 67 97 30 25 112 224 224 222 231 243 236 202 189 181 203 202 205 214 216 210 203 191 187 195 195 201 191 181 182 182 179 181 180 169 177 179 178 178 176 176 180 181 165 179 184 181 186 188 183 175 180 188 203 208 204 183 172 171 184 192 191 194 197 193 176 174 173 178 188
156 194 204 195 210 202 193 209 231 317 302 339 332 154 221 211 199 14 106 232 306 116 238 221 256 252 245 240 227 164 163 203 198 202 204 207 207 210 205 200 195 203 195 178 181 182 176 177 178 175 173 172 178 191 184 185 181 180 182 182 179 178 185 188 190 188 189 191 193 191 200 186 185 175 173 184 190 197 198 201 204 195 187 185 184 188
194 204 193 196 208 229 202 195 226 228 255 308 12 286 205 223 110 186 71 29 227 86 273 347 227 239 237 236 236 164 194 205 201 193 197 197 206 209 205 206 201 191 198 185 192 176 175 176 178 177 180 183 184 184 187 189 181 183 188 190 181 180 184 188 184 185 194 192 190 188 192 183 193 207 184 174 175 182 190 199 203 201 203 201 201 190
179 217 218 215 189 137 80 169 182 143 224 324 305 28 248 75 123 278 334 113 283 204 297 14 312 280 288 280 261 227 192 208 201 199 204 195 202 206 203 191 193 200 193 189 186 183 176 174 178 180 185 184 179 184 190 188 189 188 190 189 184 182 185 188 189 188 188 186 187 185 172 177 177 199 189 165 174 176 182 198 201 206 201 202 203 189
167 155 93 333 133 160 147 109 163 186 216 224 247 301 304 91 56 107 186 169 50 349 112 324 315 287 237 245 245 235 230 220 202 200 206 209 210 207 203 196 191 193 190 190 191 184 180 181 187 187 185 179 187 189 189 188 189 191 192 191 186 184 186 188 189 186 171 159 152 145 129 158 184 172 205 189 180 179 182 187 195 202 195 195 195 193
190 213 306 132 161 152 162 169 198 152 232 249 215 202 240 343 110 83 120 128 97 284 219 144 341 282 217 216 225 221 216 222 213 204 210 209 214 204 206 212 206 196 187 185 190 189 187 189 190 188 186 189 193 194 193 190 191 188 190 189 186 185 184 186 188 184 171 170 167 160 151 162 175 191 195 207 205 181 184 192 174 180 190 197 198 199
171 348 195 166 154 175 165 203 193 172 209 177 255 195 183 113 114 127 157 97 252 229 302 79 179 275 313 256 233 221 202 212 208 205 214 210 206 198 209 210 199 197 196 196 190 183 183 191 186 191 191 194 195 199 186 187 190 190 187 188 186 186 184 181 179 179 172 172 180 184 184 181 182 188 210 210 202 200 184 163 166 179 186 196 201 207
116 90 68 123 131 142 177 205 203 174 168 235 230 341 199 123 134 160 152 162 219 105 352 60 164 248 291 278 317 304 175 206 204 216 225 220 210 209 214 212 207 204 200 192 194 185 187 183 183 189 194 193 199 188 183 185 183 187 188 184 185 182 179 181 174 178 180 177 179 182 187 188 191 194 195 190 198 181 166 167 168 173 186 193 194 199
138 144 162 134 140 150 190 183 297 176 172 198 277 14 59 157 158 148 144 169 212 77 298 219 262 323 254 271 209 23 301 241 225 208 222 229 225 221 217 213 212 210 205 195 196 197 185 182 186 182 186 193 180 177 183 188 185 182 180 179 178 180 174 177 175 176 182 179 178 178 175 187 203 189 195 194 187 183 177 174 180 187 189 189 196 194
308 167 175 156 155 183 137 86 18 151 189 241 183 55 65 42 66 129 157 157 345 100 246 221 192 214 281 247 246 248 215 228 226 218 216 212 210 212 212 208 207 208 207 200 199 199 199 189 174 169 158 165 181 176 172 174 171 174 171 176 176 182 172 172 172 173 179 179 173 177 179 185 192 189 196 186 197 193 187 196 194 189 200 191 189 194
251 324 238 89 186 129 130 83 94 68 93 127 148 83 42 62 63 13 50 108 21 239 242 212 195 180 295 249 198 174 219 202 231 250 250 228 202 206 199 186 180 174 168 161 147 152 145 139 138 130 144 150 136 154 160 169 172 174 175 174 179 181 168 166 170 170 176 178 181 185 185 186 188 192 192 201 204 190 190 197 201 196 201 200 182 187
45 31 50 324 311 144 115 82 11 101 41 115 137 123 103 5 43 50 338 69 174 264 172 320 233 181 202 282 230 202 21 137 172 262 181 143 116 125 110 115 129 137 151 153 156 170 144 122 126 131 151 152 154 141 156 165 168 177 179 174 176 181 173 167 168 169 174 176 183 186 182 186 188 187 196 204 206 192 190 188 194 194 188 199 205 199
58 115 87 24 299 155 144 100 8 30 360 98 137 133 130 197 79 300 108 223 220 229 253 357 12 302 240 245 285 293 269 224 180 175 155 153 147 126 122 111 98 96 117 150 178 180 181 181 181 180 189 170 168 179 179 177 174 175 178 179 179 189 174 167 167 173 172 177 187 187 186 187 186 189 196 204 205 200 188 185 187 190 195 188 197 207
43 108 184 79 18 246 209 146 152 102 201 153 159 151 132 171 152 203 210 195 255 304 277 236 242 259 261 263 230 252 272 265 214 174 143 143 156 166 156 147 145 171 183 191 190 194 189 187 189 187 187 185 174 177 181 179 177 179 181 183 182 189 176 163 168 176 177 185 187 188 190 187 184 195 194 199 201 205 198 185 190 188 188 193 201 203
139 288 228 150 214 147 249 205 180 150 156 190 174 155 170 168 160 188 176 194 210 206 244 279 94 233 127 251 235 235 247 286 97 66 84 101 117 133 134 144 174 198 214 195 188 191 191 190 177 181 181 177 175 177 179 177 178 173 183 183 184 184 184 169 173 177 183 183 184 187 194 190 187 196 196 194 195 201 196 193 190 195 192 194 202 200
197 132 319 334 255 228 178 310 357 112 95 184 164 86 89 224 308 180 188 93 103 24 328 331 200 224 200 264 288 240 239 216 195 180 163 208 193 161 180 199 209 212 209 194 193 195 196 182 166 165 166 172 174 179 175 174 176 178 186 186 189 187 183 172 169 178 180 182 182 187 197 200 190 190 194 200 197 198 193 196 186 191 195 197 192 192
145 211 324 333 13 56 339 322 355 206 172 221 113 185 192 148 95 107 4 213 75 16 268 170 308 298 273 298 272 271 226 251 214 219 204 236 223 183 202 205 203 212 188 178 189 193 185 155 158 164 163 166 170 174 177 177 180 180 179 181 184 180 174 170 169 171 175 179 183 193 195 196 197 191 194 196 200 198 191 187 190 184 191 183 176 177
146 125 325 29 151 348 94 43 302 59 272 97 127 211 113 126 103 134 230 41 219 223 260 140 206 277 202 288 259 231 221 247 224 221 222 227 207 205 229 221 208 197 193 182 188 184 172 166 169 170 169 168 172 170 169 176 177 177 178 177 177 172 171 169 166 170 176 181 186 189 193 199 200 196 192 185 187 182 173 175 163 160 164 178 176 155
109 75 10 21 56 314 295 12 46 19 47 117 177 190 145 225 266 260 201 241 262 239 263 242 209 237 176 233 352 244 213 252 244 211 179 211 217 223 232 233 230 194 154 155 164 147 151 166 172 172 173 169 165 166 169 167 165 166 168 174 176 170 168 165 167 170 179 183 184 185 190 193 196 194 183 172 162 157 167 183 179 176 180 172 173 167
143 134 308 345 5 218 360 163 184 205 338 194 100 36 11 104 189 166 185 257 89 268 275 288 180 251 206 217 225 264 239 227 224 172 207 223 217 226 228 225 207 181 179 181 181 182 181 176 168 168 166 164 166 164 164 158 156 164 165 166 168 150 154 156 168 173 183 191 181 179 179 193 185 180 174 174 169 178 185 188 185 187 189 197 182 189
165 100 153 280 318 107 201 209 205 164 151 234 71 110 127 81 234 116 323 189 183 221 226 285 304 287 254 215 210 226 224 104 122 159 157 236 338 269 226 205 189 184 188 194 185 176 172 167 154 153 156 155 145 140 141 146 161 164 158 171 172 158 162 164 173 175 185 185 186 177 182 183 175 175 169 168 171 178 187 191 187 191 195 183 205 185
84 144 133 138 108 238 227 37 161 192 193 177 161 182 167 122 111 161 261 188 155 199 240 260 248 274 281 19 345 66 32 157 120 127 149 314 318 332 343 355 198 198 204 195 186 162 156 143 142 135 123 130 136 145 152 153 156 166 167 177 168 160 169 168 175 179 180 183 178 180 180 177 169 168 168 175 184 184 189 190 185 183 172 183 206 168
141 98 110 149 199 184 60 299 334 289 33 168 188 196 178 169 148 147 210 233 125 247 91 184 297 266 250 306 320 307 86 359 178 158 220 252 267 275 313 281 294 325 224 192 146 140 153 165 169 166 157 156 160 165 165 167 170 173 170 171 180 167 180 176 178 175 172 172 174 178 177 166 169 169 174 177 190 191 192 188 179 170 169 173 187 173
81 100 81 57 18 348 272 219 259 317 311 230 281 230 167 191 187 183 179 172 155 189 217 252 242 234 288 318 325 322 311 308 296 231 241 256 262 276 258 270 259 283 18 78 118 141 163 157 145 141 157 165 173 170 175 175 171 167 169 172 174 183 182 174 172 170 167 164 169 171 169 174 172 172 179 183 190 188 195 185 180 169 171 182 177 184
124 218 113 128 76 12 344 334 335 280 351 260 216 209 250 182 135 83 99 71 166 209 175 180 245 262 267 324 320 332 312 299 273 238 200 251 285 270 269 255 209 198 184 188 187 175 134 125 154 174 176 177 177 171 166 169 177 170 172 172 174 182 174 164 156 158 163 161 166 171 172 179 174 174 182 185 183 189 187 184 179 170 173 173 184 190
138 165 142 155 165 170 186 196 205 203 197 256 356 117 191 166 151 146 211 176 214 223 184 204 258 243 260 351 317 302 300 305 290 269 209 210 242 289 316 259 202 190 196 213 205 152 176 196 197 197 187 179 176 176 175 173 174 172 167 174 168 168 162 163 144 154 157 160 165 175 176 181 174 178 180 179 180 186 184 176 170 170 178 170 185 186
140 174 178 178 189 200 201 147 81 110 122 182 212 179 184 192 185 163 94 178 210 213 212 219 235 265 253 272 305 279 270 250 283 291 249 258 253 252 259 254 210 198 196 200 194 196 185 182 196 204 183 178 171 174 169 164 162 160 157 156 159 159 155 157 146 152 155 159 165 171 184 181 183 176 176 177 180 170 164 164 166 156 175 175 170 172
110 180 200 194 206 192 133 144 160 140 162 196 181 204 191 180 181 173 183 222 171 208 255 225 238 252 251 247 244 256 262 262 263 268 268 244 218 215 227 222 177 169 152 72 156 183 201 221 224 210 195 149 142 126 120 134 144 150 149 149 141 132 136 142 139 143 147 153 167 171 183 183 175 163 166 163 152 148 149 140 135 141 142 145 178 178
141 183 217 179 221 200 163 137 161 155 172 183 194 189 193 190 176 185 211 223 190 202 235 230 227 246 253 237 240 231 220 223 231 243 223 208 195 203 197 180 179 188 205 208 232 229 220 222 221 209 166 150 126 127 120 109 114 115 120 133 145 139 144 141 137 148 150 150 162 179 164 145 131 124 117 124 125 126 125 127 127 123 124 148 184 175
107 194 180 175 210 221 227 160 155 171 181 182 193 200 195 185 191 198 211 215 212 222 230 239 238 244 249 241 235 234 212 219 230 181 121 133 200 202 191 194 188 203 213 220 225 227 223 223 207 179 152 147 146 141 134 133 128 124 121 122 123 122 146 122 139 143 142 146 160 144 119 115 107 108 107 100 111 122 117 119 122 131 143 169 194 184
118 231 153 160 196 233 219 185 161 176 174 203 202 198 195 189 205 208 213 219 217 227 230 240 248 257 258 243 243 246 236 223 89 139 189 216 219 196 192 196 207 221 226 224 226 226 222 213 190 161 164 180 172 157 136 127 114 104 93 94 98 107 134 111 122 121 128 134 110 107 107 104 109 103 108 119 109 113 120 132 131 135 152 180 177 161
134 238 130 133 179 238 208 177 185 86 102 174 238 213 200 187 198 210 216 219 200 220 240 256 263 254 249 248 272 268 213 174 199 212 221 236 213 179 188 213 224 235 232 230 226 223 218 202 198 198 204 200 149 117 112 105 101 98 111 107 103 117 96 102 108 102 90 96 95 94 100 110 107 101 100 92 94 96 101 104 106 115 133 138 99 76
170 146 149 154 174 227 212 151 100 91 59 295 247 218 207 206 203 202 214 206 206 201 215 220 237 242 264 235 255 256 241 218 221 219 233 231 212 200 207 216 228 240 241 236 232 225 214 205 200 203 195 144 126 108 98 119 104 96 104 103 123 96 83 85 86 84 78 71 73 74 81 86 91 88 79 79 85 85 82 85 86 96 97 121 168 102
118 125 146 143 166 176 130 116 107 101 209 229 226 208 199 209 203 202 216 218 218 198 213 222 241 254 242 237 246 261 258 227 215 227 209 213 230 228 234 231 238 244 250 245 234 226 218 196 188 151 127 116 103 107 115 99 108 117 117 112 99 89 80 80 73 76 72 64 58 60 66 76 84 83 81 77 78 86 94 97 103 97 94 88 63 79
158 139 171 145 155 119 117 100 106 207 227 237 6 143 204 217 203 209 220 218 218 214 228 247 259 267 259 238 234 248 257 246 217 212 221 231 228 161 191 216 235 243 247 244 237 228 204 188 159 116 86 78 91 95 91 83 93 90 76 80 82 77 80 74 74 65 63 59 49 47 49 65 71 72 67 65 71 79 82 80 70 56 43 72 78 68
156 150 149 141 124 56 98 150 178 229 260 333 204 206 199 201 216 215 240 244 234 221 217 241 248 251 249 245 245 270 20 129 357 313 56 55 144 166 193 218 232 230 239 239 221 227 199 177 148 125 106 83 75 69 77 93 92 87 85 74 76 74 70 72 67 59 56 54 47 45 41 50 54 51 48 46 50 57 44 39 40 40 26 40 23 17
161 149 140 186 153 156 184 178 225 338 320 275 238 217 184 192 159 187 231 250 230 221 211 226 237 242 244 248 308 57 189 18 340 285 227 154 178 194 201 228 242 356 35 18 29 52 46 69 83 89 86 74 73 75 81 89 88 89 80 70 66 69 64 63 59 51 51 52 44 44 40 40 49 47 42 39 44 37 29 25 20 22 28 32 12 11
160 160 179 150 216 146 128 167 240 257 253 250 228 65 135 182 167 151 178 266 244 215 215 222 239 248 252 252 123 178 38 318 293 278 202 202 196 213 219 63 65 70 60 72 72 69 67 67 69 63 76 77 68 68 83 87 91 84 75 68 62 64 59 55 50 43 46 46 40 41 45 40 44 47 35 37 35 21 13 8 13 29 17 23 349 341
23 102 157 169 174 153 187 181 197 208 240 230 128 165 168 153 127 116 142 252 248 215 216 210 241 246 240 173 188 130 69 268 266 271 190 202 215 10 72 55 68 66 61 60 73 80 73 70 75 74 65 61 56 44 70 81 82 78 73 67 64 61 57 47 39 37 40 42 37 36 41 40 41 42 36 33 20 8 5 359 2 6 8 358 345 321
84 49 122 177 195 192 183 195 224 211 256 235 174 168 161 140 109 105 128 254 252 131 192 200 224 238 194 158 173 175 187 234 256 266 26 38 62 42 62 81 71 68 65 63 57 69 75 70 68 56 52 50 42 53 72 79 77 75 73 68 65 58 48 35 31 31 40 40 38 38 36 35 39 37 36 26 8 6 358 348 10 1 355 345 331 317
114 255 173 192 191 194 173 223 268 278 258 180 174 158 141 131 120 138 211 243 90 154 194 201 211 221 170 178 179 200 214 220 203 110 108 88 70 54 59 65 70 70 76 70 70 69 71 65 68 65 56 45 39 50 62 77 77 71 67 65 59 47 31 19 19 31 38 35 36 37 36 31 35 34 30 23 11 360 354 358 1 350 349 340 333 337
190 129 19 95 192 200 200 177 234 268 232 168 250 149 144 105 165 211 226 134 126 168 210 182 196 218 179 186 188 219 209 93 116 80 72 69 90 98 90 86 80 71 64 68 70 77 79 74 66 61 50 40 40 45 58 75 76 71 65 62 51 32 12 12 18 29 38 39 37 35 31 30 27 32 33 16 15 14 8 358 6 351 340 332 340 343
176 152 187 191 192 142 155 209 207 246 254 123 130 144 183 170 225 190 112 10 9 148 145 140 167 240 160 202 211 215 102 80 89 91 85 88 86 84 78 77 76 77 74 73 69 63 85 81 71 63 59 44 41 41 46 76 77 71 65 62 41 16 13 12 20 32 42 45 41 33 28 25 32 28 23 18 16 20 20 4 8 1 358 360 354 349
162 165 183 213 179 172 181 198 217 211 125 161 146 177 215 217 178 180 115 99 5 73 72 86 42 39 44 100 42 91 126 113 91 100 94 84 89 84 82 81 82 79 76 69 75 83 87 90 83 78 62 53 46 45 41 67 81 73 71 56 21 16 13 15 19 37 43 46 42 33 25 27 32 25 20 18 18 23 30 14 10 5 1 2 352 344
186 198 168 183 164 165 199 217 227 186 161 163 110 65 138 127 113 143 97 126 133 31 312 92 86 2 44 60 77 124 95 101 124 126 112 113 94 90 86 84 82 85 83 84 79 79 83 93 95 88 74 58 54 47 48 45 77 74 66 41 24 10 12 5 26 49 50 46 42 36 18 25 31 23 24 18 18 24 20 14 7 9 358 1 356 352
190 185 112 118 230 232 261 231 193 65 87 89 83 66 92 57 39 71 107 110 63 144 111 137 152 322 9 39 93 50 101 128 111 100 103 101 101 96 95 87 80 82 85 84 83 80 91 92 87 84 79 66 54 53 49 45 52 70 55 29 17 2 345 358 47 61 53 45 43 37 22 36 32 26 24 22 19 24 18 18 3 8 355 9 12 5
270 175 125 179 157 151 241 237 198 193 188 179 145 146 137 95 92 93 110 93 142 133 117 110 166 202 172 55 110 127 122 123 112 113 111 111 103 102 99 96 84 83 91 91 89 97 91 92 88 84 82 76 57 56 55 53 51 56 49 34 9 346 335 17 63 68 60 47 43 37 34 38 35 25 22 24 22 24 25 17 13 6 7 14 10 5
255 171 166 185 172 189 240 198 188 149 114 125 133 138 228 169 97 61 76 96 117 128 122 167 176 219 171 171 154 131 141 142 132 136 127 124 122 116 110 106 105 91 80 80 76 78 85 85 92 90 89 84 74 64 57 56 52 45 37 32 16 353 353 35 56 64 58 49 40 38 32 34 28 29 26 25 22 19 16 14 10 7 4 2 356 353
166 133 214 176 201 248 282 48 103 91 88 288 259 246 96 127 131 96 96 102 113 101 88 49 53 32 149 179 135 125 126 131 128 131 125 124 118 117 115 113 109 99 95 89 80 80 89 95 92 90 89 90 85 76 67 59 49 40 33 24 16 8 16 33 41 58 53 44 39 35 27 26 25 24 21 16 22 24 10 354 359 359 353 338 342 337
104 194 166 131 218 222 217 211 127 187 249 252 244 229 147 85 113 116 104 97 108 120 123 102 56 35 56 81 141 137 127 127 123 122 119 120 121 119 118 111 108 105 97 93 94 90 89 87 96 100 98 94 93 82 73 59 49 38 31 20 9 17 21 20 37 47 41 33 33 26 19 14 12 18 14 13 11 12 14 14 13 5 360 339 339 338
167 180 153 189 201 226 192 173 172 144 90 229 194 178 125 95 106 117 131 127 95 117 136 126 115 62 53 33 53 127 132 134 135 124 118 121 122 119 119 123 121 117 117 116 106 98 94 95 95 95 96 99 94 88 78 68 49 40 29 23 15 22 27 22 43 46 40 30 29 20 8 355 6 8 14 7 15 7 8 358 9 6 4 357 337 330